#timestamp,LO_Frequency,Hit,StdDev 
1541372415.9,286047020.5,N
1541372435.7,286047022.0,N
1541372455.5,286047022.0,N
1541372475.4,286047020.7,N
1541372495.2,286047023.5,N
1541372515.0,286047023.0,N
1541372515.9,286047023.0,N
1541372535.8,286047023.4,N
1541372555.6,286047020.6,N
1541372575.5,286047020.8,N
1541372595.3,286047019.5,N
1541372615.1,286047019.3,N
1541372635.9,286047017.7,N
1541372655.7,286047017.6,N
1541372675.5,286047017.9,N
1541372695.4,286047018.0,N
1541372715.2,286047018.3,N
1541372735.1,286047016.2,N
1541372736.0,286047016.2,Y
1541372755.8,286046999.3,P
1541372775.6,286046997.8,N
1541372795.5,286046996.0,N
1541372815.3,286046995.9,N
1541372835.1,286046994.8,N
1541372855.9,286046992.3,N
1541372875.7,286046994.2,N
1541372895.6,286046994.0,N
1541372915.4,286046994.0,N
1541372935.2,286046992.5,N
1541372955.1,286046990.9,N
1541372956.0,286046990.9,N
1541372975.8,286046987.2,N
1541372995.7,286046985.3,N
1541373015.5,286046985.4,N
1541373035.3,286046986.9,N
1541373055.2,286046987.3,N
1541373075.0,286046989.0,N
1541373075.9,286046989.0,N
1541373095.7,286046993.1,N
1541373115.6,286046992.7,N
1541373135.4,286046990.8,N
1541373155.3,286046992.8,N
1541373175.1,286046991.8,N
1541373176.0,286046991.8,N
1541373195.8,286046991.8,N
1541373215.7,286046992.3,N
1541373235.5,286046993.1,N
1541373255.3,286046990.5,N
1541373275.2,286046992.2,N
1541373295.0,286046986.3,Y
1541373295.9,286046988.5,P
1541373315.8,286046996.6,N
1541373335.6,286046996.0,N
1541373355.4,286046993.5,N
1541373375.3,286046993.4,N
1541373395.1,286046991.9,Y
1541373415.9,286046998.8,P
1541373435.7,286046995.5,N
1541373455.5,286046996.2,N
1541373475.4,286046993.6,Y
1541373495.2,286046996.9,P
1541373515.0,286046999.3,N
1541373515.9,286046999.3,N
1541373535.8,286046999.1,N
1541373555.6,286046999.0,N
1541373575.5,286047001.1,N
1541373595.3,286046998.5,N
1541373615.1,286046999.1,N
1541373635.9,286046999.3,N
1541373655.7,286046996.6,N
1541373675.5,286046999.3,N
1541373695.4,286046996.6,N
1541373715.2,286046999.0,N
1541373735.0,286046998.9,N
1541373735.9,286046998.9,N
1541373755.8,286046998.8,N
1541373775.6,286047000.7,N
1541373795.5,286046998.8,N
1541373815.3,286046999.5,N
1541373835.1,286046999.0,N
1541373855.9,286046996.7,N
1541373875.7,286046997.1,N
1541373895.5,286046996.5,N
1541373915.4,286046998.7,N
1541373935.2,286046998.4,N
1541373955.1,286046999.4,N
1541373956.0,286046999.4,N
1541373975.8,286047001.1,N
1541373995.6,286046998.3,N
1541374015.5,286046999.1,N
1541374035.3,286047001.9,N
1541374055.1,286047001.8,N
1541374075.9,286047002.5,N
1541374095.7,286047001.2,N
1541374115.6,286046996.5,N
1541374135.4,286046999.2,N
1541374155.2,286046997.3,N
1541374175.1,286046997.1,N
1541374176.0,286046997.1,N
1541374195.8,286046995.5,N
1541374215.6,286046994.3,Y
1541374235.5,286046993.8,P
1541374255.3,286046995.7,N
1541374275.2,286046993.9,N
1541374295.9,286046994.5,N
1541374315.7,286046992.5,Y
1541374335.6,286046997.3,P
1541374355.4,286046995.4,P
1541374375.2,286046995.7,P
1541374395.1,286046999.6,N
1541374396.0,286046999.6,N
1541374415.8,286047001.0,N
1541374435.7,286046999.9,N
1541374455.5,286047000.2,N
1541374475.3,286046999.2,N
1541374495.2,286046995.4,N
1541374515.0,286046996.1,N
1541374515.9,286046996.1,N
1541374535.7,286046993.8,N
1541374555.6,286046991.8,Y
1541374575.4,286046993.3,P
1541374595.3,286046994.6,N
1541374615.1,286046994.8,N
1541374616.0,286046994.8,Y
1541374635.8,286046986.3,P
1541374655.7,286046996.7,N
1541374675.5,286046997.1,N
1541374695.3,286046998.8,N
1541374715.2,286046998.7,N
1541374735.0,286046998.3,N
1541374735.9,286046998.3,N
1541374755.8,286046997.2,N
1541374775.6,286046995.0,N
1541374795.4,286046996.1,N
1541374815.3,286046996.1,N
1541374835.1,286046995.9,N
1541374855.8,286046995.6,N
1541374875.7,286046996.1,N
1541374895.5,286046998.0,N
1541374915.4,286046995.9,N
1541374935.2,286046996.4,N
1541374955.0,286046996.0,N
1541374955.9,286046996.0,N
1541374975.8,286046995.4,N
1541374995.6,286046998.0,N
1541375015.4,286046995.5,N
1541375035.3,286046997.9,N
1541375055.1,286046997.8,N
1541375075.9,286046994.9,N
1541375095.7,286046995.7,N
1541375115.5,286046995.7,N
1541375135.4,286046993.3,Y
1541375155.2,286047001.1,P
1541375175.0,286047000.6,N
1541375175.9,286047000.6,N
1541375195.8,286047004.1,N
1541375215.6,286047002.0,N
1541375235.5,286047002.6,N
1541375255.3,286046999.7,N
1541375275.1,286047000.7,N
1541375295.9,286046998.6,N
1541375315.7,286047000.9,N
1541375335.5,286047000.4,N
1541375355.4,286047000.8,N
1541375375.2,286047000.6,N
1541375395.1,286046998.3,N
1541375396.0,286046998.3,N
1541375415.8,286047000.3,N
1541375435.6,286047003.9,N
1541375455.5,286047005.7,Y
1541375475.3,286047004.1,P
1541375495.1,286047001.8,N
1541375515.9,286047002.8,N
1541375535.7,286047000.0,N
1541375555.6,286047000.3,N
1541375575.4,286046998.5,N
1541375595.2,286047001.2,N
1541375615.1,286047001.2,N
1541375616.0,286047001.2,N
1541375635.8,286046998.1,N
1541375655.6,286047001.2,N
1541375675.5,286047002.3,N
1541375695.3,286047004.2,N
1541375715.2,286047002.4,N
1541375735.9,286047000.5,N
1541375755.7,286047000.4,N
1541375775.6,286047000.4,N
1541375795.4,286046999.9,N
1541375815.2,286047002.2,N
1541375835.1,286047002.5,N
1541375836.0,286047002.5,N
1541375855.8,286047004.2,N
1541375875.7,286047001.4,N
1541375895.5,286047004.3,N
1541375915.3,286047003.1,N
1541375935.2,286047003.0,N
1541375955.0,286047007.6,Y
1541375955.9,286047007.6,P
1541375975.8,286047005.3,N
1541375995.6,286047004.9,N
